TimeEST,TemperatureF,Dew PointF,Humidity,Sea Level PressureIn,VisibilityMPH,Wind Direction,Wind SpeedMPH,Gust SpeedMPH,PrecipitationIn,Events,Conditions,WindDirDegrees,DateUTC
12:15 AM,60.8,60.8,100,30.03,2.5,North,8.1,-,N/A,,Overcast,10,2012-12-07 05:15:00
12:35 AM,60.8,60.8,100,30.03,2.0,North,4.6,-,N/A,,Overcast,360,2012-12-07 05:35:00
12:55 AM,60.8,60.8,100,30.03,2.0,North,5.8,-,N/A,,Overcast,360,2012-12-07 05:55:00
1:15 AM,60.8,60.8,100,30.02,1.5,North,8.1,-,N/A,,Overcast,360,2012-12-07 06:15:00
1:35 AM,60.8,60.8,100,30.02,1.8,Calm,Calm,-,N/A,,Overcast,0,2012-12-07 06:35:00
1:55 AM,60.8,60.8,100,30.02,1.2,Calm,Calm,-,N/A,,Overcast,0,2012-12-07 06:55:00
2:15 AM,60.8,60.8,100,30.02,1.0,Calm,Calm,-,N/A,,Overcast,0,2012-12-07 07:15:00
2:35 AM,59.0,59.0,100,30.03,1.0,North,6.9,-,N/A,,Overcast,350,2012-12-07 07:35:00
2:55 AM,59.0,59.0,100,30.02,1.0,North,3.5,-,N/A,,Overcast,350,2012-12-07 07:55:00
3:15 AM,59.0,59.0,100,30.02,1.2,North,6.9,-,N/A,,Overcast,360,2012-12-07 08:15:00
3:35 AM,59.0,59.0,100,30.01,1.5,North,6.9,-,N/A,,Overcast,360,2012-12-07 08:35:00
3:55 AM,59.0,59.0,100,30.01,1.2,North,4.6,-,N/A,,Overcast,10,2012-12-07 08:55:00
4:15 AM,59.0,59.0,100,30.00,1.0,North,5.8,-,N/A,,Overcast,350,2012-12-07 09:15:00
4:35 AM,59.0,59.0,100,30.00,1.0,North,5.8,-,N/A,,Overcast,360,2012-12-07 09:35:00
4:55 AM,59.0,59.0,100,30.00,1.0,North,6.9,-,N/A,,Overcast,360,2012-12-07 09:55:00
5:15 AM,59.0,59.0,100,30.00,1.0,North,5.8,-,N/A,,Overcast,350,2012-12-07 10:15:00
5:35 AM,59.0,59.0,100,30.01,1.0,North,8.1,-,N/A,,Overcast,360,2012-12-07 10:35:00
5:55 AM,59.0,59.0,100,30.01,1.5,North,5.8,-,N/A,,Overcast,10,2012-12-07 10:55:00
6:15 AM,59.0,59.0,100,30.01,2.5,Calm,Calm,-,N/A,,Overcast,0,2012-12-07 11:15:00
6:35 AM,59.0,59.0,100,30.02,3.0,North,5.8,-,N/A,,Overcast,350,2012-12-07 11:35:00
6:50 AM,59.0,59.0,100,30.03,2.0,North,9.2,-,N/A,,Overcast,360,2012-12-07 11:50:00
7:50 AM,59.0,59.0,100,30.04,2.0,NNE,6.9,-,N/A,,Overcast,20,2012-12-07 12:50:00
8:50 AM,59.0,59.0,100,30.05,2.5,NNE,6.9,-,N/A,,Overcast,20,2012-12-07 13:50:00
9:50 AM,59.0,59.0,100,30.06,3.0,NE,4.6,-,N/A,,Overcast,40,2012-12-07 14:50:00
10:50 AM,60.8,59.0,94,30.07,5.0,North,5.8,-,N/A,,Overcast,10,2012-12-07 15:50:00
11:50 AM,62.6,59.0,88,30.05,5.0,North,6.9,-,N/A,,Overcast,350,2012-12-07 16:50:00
1:50 PM,64.4,60.8,88,30.00,5.0,Calm,Calm,-,N/A,,Overcast,0,2012-12-07 18:50:00
3:50 PM,64.4,60.8,88,29.98,6.0,Calm,Calm,-,N/A,,Overcast,0,2012-12-07 20:50:00
4:50 PM,64.4,60.8,88,29.99,6.0,Calm,Calm,-,N/A,,Overcast,0,2012-12-07 21:50:00
5:50 PM,64.4,60.8,88,29.99,6.0,Calm,Calm,-,N/A,,Overcast,0,2012-12-07 22:50:00
6:50 PM,62.6,60.8,94,30.00,6.0,Calm,Calm,-,N/A,,Overcast,0,2012-12-07 23:50:00
8:15 PM,62.6,59.0,88,30.02,10.0,Calm,Calm,-,N/A,,Overcast,0,2012-12-08 01:15:00
8:35 PM,62.6,59.0,88,30.03,10.0,NE,4.6,-,N/A,,Overcast,40,2012-12-08 01:35:00
8:55 PM,62.6,59.0,88,30.03,10.0,Calm,Calm,-,N/A,,Overcast,0,2012-12-08 01:55:00
9:15 PM,60.8,59.0,94,30.03,9.0,Calm,Calm,-,N/A,,Overcast,0,2012-12-08 02:15:00
9:35 PM,60.8,59.0,94,30.03,7.0,ENE,3.5,-,N/A,,Overcast,60,2012-12-08 02:35:00
9:55 PM,60.8,59.0,94,30.04,6.0,Calm,Calm,-,N/A,,Overcast,0,2012-12-08 02:55:00
10:15 PM,60.8,59.0,94,30.04,5.0,Calm,Calm,-,N/A,,Overcast,0,2012-12-08 03:15:00
10:35 PM,60.8,59.0,94,30.04,6.0,Calm,Calm,-,N/A,,Overcast,0,2012-12-08 03:35:00
10:55 PM,59.0,59.0,100,30.04,6.0,Calm,Calm,-,N/A,,Overcast,0,2012-12-08 03:55:00
11:15 PM,59.0,59.0,100,30.04,6.0,Calm,Calm,-,N/A,,Overcast,0,2012-12-08 04:15:00
11:35 PM,59.0,59.0,100,30.04,7.0,Calm,Calm,-,N/A,,Overcast,0,2012-12-08 04:35:00
11:55 PM,59.0,57.2,94,30.04,5.0,Calm,Calm,-,N/A,,Overcast,0,2012-12-08 04:55:00